[[{"header":{"parameterUnit":"m.s-1","parameterCategory":1,"la1":30.2991,"la2":30.254,"lo1":-89.0895,"lo2":-89.0444,"dy":0.0017,"dx":0.0017,"nx":28,"ny":28,"refTime":"2025-11-19T09:00:00:Z","depth":0,"parameterNumber":2,"parameterNumberName":"U-component_of_WINDS"},"data":[0,0,0,0,0,0,0,0,0,0,0,0,0,0,0,0,0,0,0,0,0,0,0,0,0,0,0,0,0,0,0,0,0,0,0,0,0,0,0,0,0,0,0,0,0,0,0,0,0,0,0,0,0,0,0,0,0,0,-1.3826,-1.3826,0,-1.3852,-1.3852,-1.3852,-1.3826,-1.3825,-1.3824,-1.3823,-1.3852,-1.3853,-1.3855,0,0,0,0,0,0,0,0,0,0,0,0,0,-1.3757,-1.3758,-1.3826,-1.3826,-1.3827,-1.3852,-1.3852,-1.3852,-1.3827,-1.3825,-1.3824,-1.3823,-1.3851,-1.3853,-1.3855,0,0,0,0,0,0,0,0,0,0,0,0,0,-1.3785,-1.3759,-1.3826,-1.3817,-1.3816,-1.3851,-1.3852,-1.3852,-1.3827,-1.3825,-1.3824,-1.3822,-1.385,-1.3853,-1.3855,-1.3902,0,0,-1.3863,-1.3864,0,0,0,0,0,0,0,0,-1.3783,-1.3788,-1.3818,-1.3817,-1.3817,-1.3834,-1.3838,-1.3869,-1.3827,-1.3823,-1.3823,-1.3822,-1.3847,-1.385,-1.3858,-1.3903,-1.3904,-1.3864,-1.3865,-1.3866,-1.3867,0,0,0,0,0,0,0,-1.3782,-1.3786,-1.3836,-1.3818,-1.3818,-1.3812,-1.3814,-1.3844,-1.3843,-1.3823,-1.3821,-1.3825,-1.3847,-1.3856,-1.3859,-1.3905,-1.3863,-1.3866,-1.3867,-1.3868,-1.399,-1.3991,0,0,0,0,0,0,-1.378,-1.3785,-1.3835,-1.3837,-1.3796,-1.3814,-1.3817,-1.383,-1.3843,-1.3843,-1.3826,-1.3823,-1.3852,-1.3856,-1.386,-1.3915,-1.3866,-1.3869,-1.387,-1.3988,-1.399,-1.3992,0,0,0,0,0,0,-1.3779,-1.3785,-1.3834,-1.381,-1.3816,-1.3817,-1.3832,-1.3831,-1.384,-1.3845,-1.3845,-1.3835,-1.3851,-1.3856,-1.3891,-1.3916,-1.387,-1.3872,-1.3986,-1.3988,-1.3991,-1.4026,0,0,0,0,0,0,-1.3777,-1.3785,-1.3802,-1.3811,-1.3818,-1.3865,-1.3834,-1.3833,-1.3845,-1.3842,-1.3854,-1.3854,-1.385,-1.3888,-1.3894,-1.3918,-1.3874,-1.3984,-1.3987,-1.399,-1.4023,-1.4029,-1.4035,0,0,0,0,0,-1.3775,-1.3811,-1.3803,-1.3809,-1.3839,-1.3867,-1.387,-1.3865,-1.3847,-1.3864,-1.3867,-1.3854,-1.3912,-1.3892,-1.3898,-1.3924,-1.3982,-1.3986,-1.399,-1.402,-1.4028,-1.4035,0,0,0,0,0,0,-1.3805,-1.3812,-1.3803,-1.3843,-1.3854,-1.3862,-1.3884,-1.3873,-1.3891,-1.3887,-1.388,-1.3883,-1.392,-1.3926,-1.3903,-1.397,-1.3944,-1.395,-1.3965,-1.3973,-1.3979,-1.3977,-1.3876,0,0,0,0,0,-1.3817,-1.3838,-1.3843,-1.3878,-1.3884,-1.3883,-1.3895,-1.389,-1.3901,-1.3906,-1.3911,-1.3924,-1.3945,-1.3959,-1.3979,-1.4023,-1.4026,-1.4044,-1.405,-1.4055,-1.406,-1.4085,-1.4093,-1.4004,-1.4004,-1.4004,0,0,-1.384,-1.3847,-1.3861,-1.3884,-1.3892,-1.3915,-1.3887,-1.3913,-1.393,-1.391,-1.3944,-1.3948,-1.3962,-1.4002,-1.402,-1.4008,-1.4085,-1.406,-1.4064,-1.4066,-1.4089,-1.4098,-1.4105,-1.4007,-1.4006,-1.4006,0,0,-1.3895,-1.3902,-1.3932,-1.3941,-1.3953,-1.3952,-1.396,-1.3969,-1.3971,-1.4005,-1.3991,-1.4011,-1.4047,-1.4058,-1.4068,-1.4127,-1.4116,-1.4134,-1.4166,-1.419,-1.4197,-1.4204,-1.4225,-1.4233,-1.4138,-1.4139,-1.4139,0,-1.3924,-1.3957,-1.3949,-1.3976,-1.3987,-1.3969,-1.4,-1.4009,-1.4028,-1.4036,-1.4021,-1.4067,-1.4075,-1.4117,-1.4132,-1.414,-1.4149,-1.4132,-1.4197,-1.4203,-1.4209,-1.4229,-1.4237,-1.4141,-1.414,-1.414,-1.414,0,-1.3991,-1.4015,-1.4038,-1.4055,-1.4069,-1.4097,-1.4095,-1.411,-1.4103,-1.4104,-1.4139,-1.4148,-1.4169,-1.4179,-1.4173,-1.4221,-1.4213,-1.4198,-1.4172,-1.4219,-1.4239,-1.4246,-1.4144,-1.4143,-1.4142,-1.4142,0,0,-1.4067,-1.4079,-1.4088,-1.4096,-1.4108,-1.4127,-1.4155,-1.4175,-1.4188,-1.4202,-1.4225,-1.4257,-1.4243,-1.4254,-1.4249,-1.427,-1.4317,-1.4253,-1.4253,-1.4265,-1.4372,-1.4383,-1.4392,-1.431,-1.4311,-1.4312,-1.4371,0,-1.4122,-1.417,-1.4164,-1.421,-1.4232,-1.4216,-1.4241,-1.4251,-1.4253,-1.4273,-1.4275,-1.4297,-1.4277,-1.4284,-1.4304,-1.4307,-1.4339,-1.4303,-1.4333,-1.4334,-1.433,-1.4402,-1.4414,-1.4469,-1.4378,-1.4379,-1.438,0,-1.4194,-1.4209,-1.4257,-1.4267,-1.4276,-1.4298,-1.4316,-1.4334,-1.4346,-1.4346,-1.4359,-1.4351,-1.438,-1.4353,-1.4393,-1.4369,-1.4381,-1.4385,-1.4387,-1.439,-1.436,-1.4407,-1.4486,-1.4495,-1.4392,-1.4391,-1.439,0,-1.4245,-1.4277,-1.431,-1.4318,-1.4329,-1.4345,-1.4351,-1.4361,-1.4374,-1.439,-1.4398,-1.4418,-1.4429,-1.4445,-1.4442,-1.4423,-1.4483,-1.4457,-1.4485,-1.4485,-1.4498,-1.4498,-1.458,-1.4505,-1.4505,-1.4505,-1.4505,0,-1.4308,-1.4338,-1.4333,-1.4354,-1.4388,-1.4381,-1.4414,-1.4418,-1.4428,-1.4449,-1.4437,-1.4457,-1.4452,-1.4473,-1.4471,-1.4505,-1.451,-1.4511,-1.4511,-1.4513,-1.4513,-1.452,-1.4517,-1.4507,-1.4507,-1.4506,-1.4506,0,-1.437,-1.4368,-1.4403,-1.4411,-1.4414,-1.4438,-1.4446,-1.4465,-1.4466,-1.4493,-1.4499,-1.4501,-1.4525,-1.4523,-1.455,-1.4549,-1.4591,-1.4586,-1.4587,-1.4586,-1.4614,-1.4612,-1.4705,-1.4718,-1.4634,-1.4635,-1.4636,0,-1.4411,-1.4434,-1.4444,-1.4457,-1.4463,-1.4485,-1.4497,-1.4492,-1.4506,-1.4521,-1.4539,-1.4562,-1.4579,-1.4618,-1.4622,-1.4643,-1.4638,-1.467,-1.4641,-1.4643,-1.4639,-1.4638,-1.4641,-1.4675,-1.4676,-1.4677,-1.4678,0,-1.4483,-1.4481,-1.4499,-1.4518,-1.4533,-1.4547,-1.456,-1.4572,-1.4568,-1.4584,-1.4608,-1.4621,-1.4649,-1.4671,-1.4691,-1.4698,-1.4688,-1.4686,-1.4694,-1.4697,-1.4697,-1.4698,-1.4602,-1.4684,-1.4684,-1.4683,-1.4683,-1.4683,-1.4536,-1.4556,-1.4566,-1.4587,-1.4596,-1.4609,-1.4628,-1.463,-1.465,-1.4671,-1.4667,-1.4694,-1.4706,-1.4731,-1.474,-1.4761,-1.475,-1.4761,-1.4764,-1.4767,-1.477,-1.4693,-1.4765,-1.4765,-1.4764,-1.4764,-1.4764,0,-1.4609,-1.4614,-1.4634,-1.4652,-1.4669,-1.4656,-1.467,-1.4685,-1.4709,-1.472,-1.4738,-1.4766,-1.4788,-1.4793,-1.4814,-1.4831,-1.4826,-1.4837,-1.4836,-1.4837,-1.4779,-1.477,-1.484,-1.484,-1.484,-1.4839,-1.4839,-1.4839,-1.4648,-1.4681,-1.468,-1.4717,-1.4723,-1.4749,-1.4758,-1.4769,-1.4779,-1.481,-1.4828,-1.4831,-1.484,-1.4862,-1.4882,-1.4883,-1.4892,-1.4904,-1.4904,-1.4849,-1.4841,-1.4834,-1.4826,-1.4906,-1.4906,-1.496,-1.4961,-1.4961]},{"header":{"parameterUnit":"m.s-1","parameterCategory":1,"la1":30.2991,"la2":30.254,"lo1":-89.0895,"lo2":-89.0444,"dy":0.0017,"dx":0.0017,"nx":28,"ny":28,"refTime":"2025-11-19T09:00:00:Z","depth":0,"parameterNumber":3,"parameterNumberName":"V-component_of_WINDS"},"data":[0,0,0,0,0,0,0,0,0,0,0,0,0,0,0,0,0,0,0,0,0,0,0,0,0,0,0,0,0,0,0,0,0,0,0,0,0,0,0,0,0,0,0,0,0,0,0,0,0,0,0,0,0,0,0,0,0,0,0.3205,0.3204,0,0.3168,0.3168,0.3167,0.3157,0.3157,0.3158,0.3158,0.312,0.3119,0.3118,0,0,0,0,0,0,0,0,0,0,0,0,0,0.3266,0.3264,0.3205,0.3204,0.3204,0.3168,0.3168,0.3167,0.3157,0.3157,0.3158,0.3158,0.3121,0.3119,0.3118,0,0,0,0,0,0,0,0,0,0,0,0,0,0.3235,0.3264,0.3205,0.3194,0.3193,0.3168,0.3168,0.3167,0.3157,0.3157,0.3158,0.3158,0.3121,0.3119,0.3118,0.31,0,0,0.3112,0.3111,0,0,0,0,0,0,0,0,0.3237,0.3233,0.3196,0.3195,0.3194,0.3168,0.3175,0.3145,0.3157,0.3171,0.3158,0.3158,0.3136,0.3133,0.3125,0.3099,0.3097,0.3112,0.3111,0.311,0.311,0,0,0,0,0,0,0,0.3239,0.3234,0.319,0.3196,0.3194,0.3192,0.3188,0.317,0.3152,0.317,0.3169,0.3165,0.3135,0.3127,0.3124,0.3096,0.3112,0.311,0.3109,0.3109,0.3055,0.3054,0,0,0,0,0,0,0.3243,0.3236,0.3191,0.3189,0.3216,0.319,0.3186,0.3176,0.3152,0.3149,0.3164,0.3164,0.313,0.3126,0.3123,0.3102,0.311,0.3108,0.3107,0.3055,0.3055,0.3054,0,0,0,0,0,0,0.3244,0.3239,0.3193,0.3212,0.3206,0.3189,0.3177,0.3175,0.3167,0.3148,0.3145,0.3159,0.313,0.3125,0.3106,0.31,0.3108,0.3106,0.3055,0.3055,0.3054,0.3059,0,0,0,0,0,0,0.3246,0.3239,0.3233,0.3212,0.3205,0.3177,0.3177,0.3174,0.3164,0.3163,0.3143,0.314,0.313,0.3109,0.3104,0.3098,0.3105,0.3056,0.3055,0.3055,0.3059,0.3058,0.3058,0,0,0,0,0,0.3248,0.3235,0.3232,0.3227,0.3196,0.3176,0.3172,0.3161,0.3163,0.3156,0.3145,0.314,0.3102,0.3107,0.3102,0.3095,0.3056,0.3055,0.3055,0.3059,0.3058,0.3058,0,0,0,0,0,0,0.3255,0.3232,0.3229,0.3209,0.3195,0.3175,0.3165,0.3161,0.3146,0.3146,0.3133,0.3129,0.311,0.3101,0.3107,0.3077,0.3079,0.3077,0.3084,0.3083,0.3083,0.3085,0.3103,0,0,0,0,0,0.3254,0.3239,0.322,0.3205,0.3198,0.3183,0.3174,0.3167,0.3151,0.3145,0.3132,0.3117,0.3102,0.3092,0.3077,0.3058,0.3053,0.305,0.305,0.3049,0.3048,0.3037,0.3036,0.3052,0.3052,0.3052,0,0,0.3252,0.3238,0.3229,0.3205,0.3194,0.3179,0.3178,0.3162,0.3151,0.3143,0.3124,0.3114,0.3097,0.3078,0.3069,0.3069,0.3043,0.3048,0.3048,0.3047,0.3036,0.3035,0.3034,0.3051,0.3051,0.3051,0,0,0.3241,0.3228,0.3214,0.3202,0.3185,0.3175,0.3172,0.3153,0.3146,0.3127,0.312,0.3107,0.3081,0.3069,0.306,0.3045,0.3041,0.3041,0.3037,0.3028,0.3026,0.3025,0.302,0.3019,0.3039,0.3039,0.3039,0,0.324,0.3218,0.3207,0.3192,0.3182,0.3174,0.316,0.3149,0.3127,0.3121,0.3121,0.3089,0.3076,0.3055,0.3051,0.3044,0.304,0.3043,0.3027,0.3026,0.3025,0.302,0.3018,0.3039,0.3039,0.3039,0.3039,0,0.3219,0.3204,0.3194,0.3174,0.3163,0.3148,0.3135,0.3125,0.312,0.311,0.3091,0.3076,0.3058,0.3053,0.3047,0.303,0.3031,0.303,0.3031,0.3024,0.3019,0.3017,0.3039,0.3039,0.3039,0.3039,0,0,0.321,0.3184,0.3181,0.3172,0.3152,0.314,0.3126,0.3108,0.31,0.3086,0.3073,0.3052,0.3051,0.304,0.3033,0.3024,0.3014,0.3024,0.3023,0.3023,0.2996,0.2997,0.2995,0.3011,0.3011,0.3011,0.2997,0,0.3197,0.317,0.316,0.3139,0.3125,0.3117,0.3105,0.3091,0.3082,0.3069,0.3059,0.3044,0.3044,0.3037,0.3028,0.3017,0.3009,0.3018,0.3,0.2999,0.3004,0.2993,0.2994,0.2982,0.2995,0.2995,0.2995,0,0.3177,0.3163,0.314,0.3123,0.3116,0.3105,0.3089,0.3076,0.3061,0.3055,0.3044,0.3038,0.3022,0.3025,0.3004,0.3011,0.3003,0.2996,0.2996,0.2993,0.2997,0.299,0.2978,0.2976,0.2992,0.2992,0.2992,0,0.3174,0.3149,0.3132,0.3124,0.3103,0.3096,0.3087,0.3072,0.3063,0.3048,0.3042,0.3026,0.3018,0.3006,0.2995,0.2998,0.2975,0.2977,0.297,0.2971,0.2966,0.2966,0.2952,0.296,0.296,0.2961,0.2961,0,0.316,0.3146,0.313,0.312,0.3104,0.3093,0.3078,0.3069,0.3056,0.3044,0.3037,0.3026,0.3013,0.3,0.2992,0.2976,0.2972,0.2967,0.2965,0.2967,0.2968,0.2962,0.2962,0.296,0.296,0.296,0.296,0,0.3153,0.3141,0.3123,0.3105,0.31,0.309,0.3075,0.3064,0.3055,0.304,0.3036,0.3022,0.3006,0.2995,0.2975,0.2969,0.2953,0.295,0.2958,0.2957,0.2951,0.2951,0.2932,0.2929,0.294,0.294,0.2939,0,0.3145,0.3134,0.3115,0.3107,0.3098,0.3084,0.3075,0.3064,0.3054,0.3037,0.3029,0.3013,0.3,0.2976,0.2964,0.2949,0.2946,0.294,0.2944,0.2947,0.2946,0.2947,0.2946,0.294,0.294,0.294,0.294,0,0.3131,0.3127,0.3113,0.3098,0.3087,0.3074,0.3061,0.3055,0.3042,0.3031,0.3016,0.3005,0.2986,0.297,0.2954,0.2945,0.294,0.2939,0.2936,0.2939,0.2944,0.2941,0.2957,0.2939,0.2939,0.2939,0.2939,0.2939,0.3124,0.3114,0.31,0.3085,0.3075,0.3063,0.3053,0.3043,0.303,0.3013,0.3007,0.2991,0.2977,0.2955,0.2946,0.2933,0.2933,0.293,0.2929,0.2928,0.2929,0.2946,0.293,0.293,0.293,0.293,0.293,0,0.311,0.3101,0.3088,0.307,0.3059,0.3056,0.3042,0.3033,0.3019,0.3006,0.2993,0.2976,0.2961,0.2948,0.2933,0.2926,0.2923,0.2922,0.2922,0.292,0.2929,0.2933,0.2924,0.2924,0.2924,0.2924,0.2924,0.2924,0.3102,0.3086,0.308,0.3058,0.3049,0.3033,0.3026,0.3015,0.3005,0.2986,0.2974,0.2966,0.2953,0.2937,0.2923,0.292,0.2915,0.2914,0.291,0.2919,0.292,0.292,0.2924,0.2913,0.2913,0.2903,0.2902,0.2902]}]]